Meath Environmental Platform

Observations for Trim Market St

Time AQI Temp °C Hum % Pres Pa CO μg/m³ H₂S μg/m³ NO μg/m³ NO₂ μg/m³ O₃ μg/m³ SO₂ μg/m³ PM1 μg/m³ PM2.5 μg/m³ PM10 μg/m³
Tuesday 7 July 2026
22:16 1 23.1 63 57,401 0 1.53 0 12.26 14.13 0 2.14 3.88 5.53
22:15 1 23.1 63 57,420 0 0.34 0 9.47 14.24 0 1.43 3.88 6.19
22:14 1 23.2 63 57,434 0 1.34 0 11.45 13 0 2.85 4.38 6.19
22:13 1 23.2 63 57,452 0 0 0 11.65 8.78 0 1.43 3.39 4.85
22:12 1 23.2 63 57,466 0 1.55 0.22 12.08 7.95 0 2.14 4.39 6.19
22:11 1 23.3 63 57,479 0 3.01 0 15.65 11.21 0 2.85 5.38 7.53
22:10 1 23.3 63 57,498 0 0.91 0 11.96 14.23 0 2.14 4.4 6.19
22:08 1 23.4 62 57,525 0 0.04 0 9.06 15.79 0 0.71 3.41 4.84
22:07 1 23.4 62 57,536 0 0 0 8.67 13.55 0 2.14 3.91 5.51
22:04 1 23.5 62 57,551 0 0 0 6.96 14.27 0 2.14 3.92 5.51
22:03 1 23.6 62 57,564 0 0.69 0 11.75 16.05 0 1.43 3.93 5.51
22:01 1 23.6 62 57,584 0 0.98 0 12.97 11.48 0 2.14 3.94 5.5
21:58 1 23.7 62 57,610 0 0.85 0 9.27 15.61 0 2.14 4.45 7.53
21:48 1 24 61 57,699 0 3.36 0 11.5 21.14 0 2.14 4.5 6.16
21:47 1 24.1 60 57,710 0 1.07 0 9.49 13.89 0 2.14 5 6.85
21:46 1 24.1 60 57,720 0 2.53 0 10 18.38 0 2.14 4.01 5.48
21:45 1 24.2 60 57,729 0 3.8 0 11.78 17.52 0 0.71 3.51 4.79
21:44 1 24.2 60 57,739 0 3.67 0 10.9 14.89 0 2.14 4.52 6.16
21:43 1 24.2 60 57,746 0 4.55 0 12.12 16.62 0 3.56 5.03 6.84
21:42 1 24.3 60 57,754 0 2.79 0 12.9 17.63 0 2.14 4.03 5.47